Precipitable_Water
0.88 0.90 0.90 0.90 0.88 0.82 0.78 0.76 0.69 0.67 0.57 0.45 0.35 0.31 0.30 0.28 0.27 0.26 0.26 0.26 0.26 0.27 0.29 0.30 0.30 0.31 0.29 0.27 0.26 0.25 0.23 0.22 0.18 0.18 0.20 0.20 0.20 0.20 0.20 0.20 0.22 0.24 0.25
0.91 0.90 0.90 0.91 0.88 0.81 0.78 0.75 0.72 0.63 0.55 0.44 0.37 0.33 0.32 0.30 0.28 0.26 0.24 0.26 0.26 0.26 0.27 0.28 0.28 0.30 0.27 0.27 0.26 0.24 0.23 0.22 0.20 0.17 0.19 0.20 0.20 0.20 0.20 0.20 0.21 0.24 0.26
0.93 0.92 0.92 0.90 0.88 0.84 0.77 0.75 0.73 0.63 0.55 0.45 0.39 0.36 0.33 0.31 0.28 0.26 0.26 0.26 0.26 0.24 0.25 0.25 0.26 0.26 0.26 0.26 0.26 0.24 0.23 0.22 0.21 0.20 0.19 0.21 0.20 0.19 0.18 0.20 0.21 0.24 0.25
0.89 0.92 0.92 0.91 0.90 0.88 0.81 0.71 0.73 0.67 0.56 0.46 0.42 0.39 0.35 0.31 0.29 0.27 0.27 0.27 0.27 0.26 0.24 0.24 0.25 0.26 0.25 0.26 0.25 0.24 0.23 0.22 0.22 0.21 0.20 0.19 0.18 0.18 0.19 0.18 0.19 0.21 0.19
0.88 0.87 0.89 0.93 0.92 0.88 0.82 0.75 0.75 0.67 0.54 0.46 0.44 0.41 0.36 0.32 0.30 0.29 0.28 0.30 0.28 0.27 0.24 0.22 0.26 0.27 0.28 0.27 0.25 0.24 0.24 0.23 0.22 0.21 0.19 0.18 0.17 0.17 0.16 0.19 0.18 0.19 0.18
0.88 0.85 0.87 0.88 0.87 0.85 0.80 0.76 0.72 0.66 0.52 0.47 0.46 0.40 0.37 0.33 0.32 0.32 0.31 0.29 0.29 0.27 0.23 0.23 0.24 0.27 0.27 0.26 0.26 0.25 0.25 0.23 0.22 0.20 0.17 0.16 0.17 0.18 0.19 0.18 0.18 0.16 0.13
0.84 0.85 0.84 0.84 0.83 0.82 0.78 0.72 0.66 0.61 0.50 0.49 0.45 0.42 0.39 0.36 0.35 0.35 0.33 0.31 0.30 0.27 0.24 0.22 0.23 0.26 0.26 0.25 0.24 0.24 0.24 0.25 0.24 0.19 0.18 0.18 0.18 0.18 0.19 0.17 0.17 0.17 0.16
0.81 0.83 0.82 0.79 0.78 0.78 0.74 0.68 0.65 0.54 0.52 0.50 0.46 0.45 0.43 0.40 0.38 0.38 0.36 0.34 0.31 0.29 0.25 0.23 0.23 0.24 0.25 0.24 0.23 0.24 0.24 0.23 0.22 0.22 0.22 0.21 0.20 0.21 0.21 0.21 0.20 0.20 0.21
0.78 0.78 0.79 0.77 0.74 0.74 0.71 0.63 0.58 0.55 0.54 0.50 0.48 0.46 0.45 0.43 0.41 0.40 0.38 0.34 0.31 0.29 0.26 0.24 0.24 0.24 0.24 0.24 0.25 0.23 0.23 0.22 0.24 0.24 0.23 0.22 0.21 0.19 0.19 0.20 0.17 0.16 0.15
0.75 0.77 0.77 0.76 0.72 0.66 0.64 0.60 0.59 0.57 0.55 0.53 0.50 0.50 0.49 0.46 0.44 0.42 0.39 0.35 0.31 0.29 0.27 0.25 0.25 0.23 0.23 0.24 0.24 0.23 0.21 0.22 0.23 0.22 0.21 0.21 0.20 0.20 0.19 0.18 0.16 0.13 0.13
0.74 0.73 0.69 0.68 0.67 0.67 0.64 0.62 0.60 0.58 0.57 0.54 0.52 0.53 0.52 0.49 0.44 0.44 0.42 0.37 0.32 0.29 0.26 0.25 0.25 0.22 0.22 0.24 0.25 0.23 0.22 0.25 0.25 0.23 0.22 0.20 0.20 0.19 0.18 0.18 0.16 0.15 0.14
0.70 0.69 0.68 0.68 0.67 0.67 0.65 0.62 0.61 0.60 0.59 0.56 0.51 0.49 0.49 0.50 0.44 0.43 0.42 0.39 0.36 0.31 0.27 0.26 0.25 0.23 0.23 0.24 0.22 0.22 0.26 0.27 0.25 0.22 0.20 0.18 0.18 0.17 0.17 0.17 0.17 0.16 0.17
0.66 0.66 0.67 0.69 0.69 0.67 0.65 0.65 0.70 0.65 0.66 0.60 0.54 0.50 0.48 0.47 0.46 0.44 0.43 0.41 0.37 0.32 0.29 0.27 0.25 0.24 0.22 0.20 0.21 0.25 0.27 0.25 0.22 0.19 0.18 0.17 0.18 0.18 0.17 0.17 0.16 0.16 0.16
0.65 0.67 0.70 0.68 0.68 0.68 0.72 0.75 0.69 0.69 0.65 0.60 0.52 0.50 0.49 0.47 0.50 0.44 0.44 0.41 0.38 0.34 0.31 0.27 0.24 0.23 0.20 0.20 0.23 0.25 0.26 0.24 0.22 0.19 0.18 0.18 0.18 0.16 0.15 0.16 0.14 0.14 0.13
0.68 0.68 0.68 0.71 0.69 0.70 0.74 0.72 0.64 0.62 0.64 0.56 0.52 0.51 0.48 0.50 0.50 0.46 0.44 0.40 0.36 0.34 0.30 0.24 0.22 0.20 0.18 0.21 0.23 0.24 0.25 0.23 0.21 0.20 0.18 0.17 0.16 0.16 0.15 0.15 0.14 0.13 0.12
0.66 0.64 0.63 0.70 0.71 0.68 0.64 0.59 0.62 0.64 0.62 0.54 0.53 0.51 0.50 0.57 0.52 0.48 0.45 0.40 0.36 0.34 0.26 0.20 0.18 0.17 0.19 0.21 0.23 0.24 0.24 0.23 0.22 0.20 0.18 0.17 0.16 0.15 0.14 0.14 0.13 0.12 0.11
0.62 0.64 0.68 0.61 0.62 0.64 0.62 0.57 0.53 0.56 0.55 0.51 0.51 0.51 0.51 0.56 0.53 0.52 0.46 0.40 0.37 0.30 0.21 0.17 0.17 0.18 0.21 0.22 0.24 0.25 0.23 0.23 0.23 0.20 0.17 0.16 0.16 0.15 0.14 0.13 0.12 0.12 0.10
0.54 0.54 0.56 0.57 0.60 0.61 0.58 0.54 0.53 0.50 0.49 0.48 0.51 0.51 0.54 0.56 0.54 0.51 0.43 0.37 0.28 0.22 0.18 0.17 0.19 0.22 0.23 0.24 0.25 0.24 0.24 0.24 0.23 0.20 0.17 0.16 0.15 0.14 0.13 0.12 0.12 0.10 0.09
0.52 0.56 0.57 0.56 0.56 0.55 0.53 0.53 0.54 0.53 0.50 0.49 0.48 0.52 0.55 0.53 0.52 0.46 0.40 0.31 0.23 0.19 0.19 0.20 0.23 0.24 0.24 0.26 0.26 0.25 0.25 0.24 0.23 0.20 0.16 0.15 0.14 0.13 0.12 0.12 0.11 0.10 0.10
0.42 0.47 0.52 0.53 0.52 0.50 0.53 0.54 0.53 0.51 0.49 0.48 0.49 0.52 0.52 0.50 0.46 0.42 0.34 0.27 0.22 0.21 0.22 0.24 0.25 0.25 0.25 0.27 0.26 0.26 0.25 0.24 0.21 0.19 0.16 0.14 0.14 0.13 0.12 0.11 0.11 0.10 0.09
0.42 0.44 0.47 0.48 0.50 0.53 0.53 0.53 0.53 0.52 0.51 0.51 0.53 0.53 0.52 0.48 0.43 0.36 0.29 0.24 0.22 0.23 0.26 0.28 0.27 0.25 0.27 0.27 0.27 0.26 0.25 0.22 0.20 0.18 0.16 0.14 0.14 0.13 0.12 0.12 0.12 0.11 0.10
0.41 0.44 0.46 0.47 0.49 0.50 0.51 0.51 0.51 0.50 0.51 0.50 0.51 0.51 0.50 0.46 0.39 0.30 0.25 0.23 0.24 0.28 0.29 0.28 0.27 0.28 0.27 0.27 0.27 0.26 0.24 0.21 0.19 0.17 0.15 0.14 0.13 0.13 0.12 0.12 0.11 0.11 0.09
0.42 0.43 0.44 0.47 0.50 0.50 0.51 0.50 0.50 0.49 0.50 0.51 0.50 0.48 0.46 0.39 0.30 0.25 0.23 0.25 0.28 0.29 0.29 0.29 0.28 0.28 0.28 0.28 0.28 0.26 0.22 0.20 0.19 0.18 0.15 0.13 0.13 0.12 0.12 0.11 0.11 0.10 0.09
0.44 0.46 0.46 0.46 0.47 0.48 0.48 0.48 0.50 0.51 0.51 0.49 0.47 0.45 0.37 0.28 0.24 0.22 0.25 0.29 0.30 0.30 0.30 0.30 0.29 0.29 0.28 0.28 0.26 0.24 0.22 0.21 0.19 0.17 0.15 0.13 0.13 0.12 0.12 0.11 0.11 0.09 0.08
0.47 0.47 0.46 0.45 0.45 0.46 0.48 0.51 0.50 0.49 0.48 0.46 0.43 0.32 0.25 0.23 0.22 0.26 0.29 0.30 0.30 0.30 0.30 0.30 0.30 0.30 0.29 0.27 0.24 0.22 0.21 0.19 0.18 0.16 0.15 0.14 0.13 0.12 0.12 0.11 0.10 0.09 0.08
0.45 0.47 0.49 0.50 0.50 0.50 0.50 0.48 0.47 0.46 0.44 0.38 0.27 0.23 0.22 0.23 0.27 0.29 0.30 0.30 0.29 0.29 0.29 0.29 0.29 0.29 0.26 0.24 0.22 0.20 0.19 0.17 0.16 0.15 0.15 0.13 0.12 0.12 0.11 0.09 0.09 0.08 0.08
Wind_Speed
20 18 18 17 17 18 18 18 19 20 21 23 24 24 25 25 26 26 26 26 26 26 26 25 24 23 25 25 25 25 26 26 25 26 26 27 28 29 30 29 28 28 29
20 20 20 20 20 20 20 21 21 22 23 24 25 26 26 26 27 27 27 27 26 26 27 25 25 25 26 26 26 26 26 26 26 27 28 29 30 29 29 29 29 29 30
20 21 21 22 23 23 23 23 24 24 24 25 26 27 27 27 27 27 27 27 27 28 27 26 26 26 27 27 26 27 26 27 28 29 29 30 30 30 29 30 30 31 32
22 22 23 24 25 25 25 25 24 25 26 27 28 28 28 28 28 28 28 27 28 28 28 27 27 27 27 26 26 26 27 29 30 30 30 30 30 30 30 31 32 33 35
23 24 25 26 27 27 27 27 27 27 28 29 29 29 29 29 28 28 28 28 28 28 28 28 27 27 25 26 26 27 28 30 30 30 30 31 31 32 33 33 35 35 37
25 25 26 27 28 28 28 28 28 29 29 30 30 29 29 29 28 28 28 28 28 28 28 27 27 26 26 26 27 28 30 30 30 30 31 32 32 33 34 35 37 38 38
26 26 27 28 28 28 29 29 30 30 30 31 30 30 30 29 29 28 28 28 28 28 28 27 27 26 27 27 29 30 30 30 31 32 32 33 34 36 36 37 38 39 40
27 28 28 28 29 29 30 30 31 31 31 31 31 31 30 30 29 29 28 28 28 28 28 27 27 27 28 28 29 30 30 31 32 32 33 34 35 37 38 39 40 41 41
28 29 29 29 29 30 31 31 32 32 32 32 32 31 30 30 30 29 29 29 28 28 28 27 28 28 29 29 30 30 31 32 32 33 34 35 36 37 38 39 39 41 41
29 29 29 30 30 31 32 32 33 33 33 33 32 31 31 31 30 29 29 29 28 28 28 28 29 29 29 30 31 31 32 33 33 33 35 36 37 38 38 39 41 42 43
29 29 30 31 32 33 33 34 34 34 34 33 33 32 32 31 31 31 30 29 29 29 28 29 29 29 30 31 32 32 33 34 34 35 36 37 38 38 39 40 41 42 43
29 31 32 33 34 34 34 35 35 34 35 33 32 33 32 32 32 31 31 30 29 29 29 29 29 30 31 32 33 33 34 35 35 36 37 38 39 40 40 41 43 44 44
31 33 34 35 36 36 36 36 33 35 33 33 33 34 34 34 33 32 31 30 29 29 29 30 30 31 32 33 33 33 34 35 36 37 38 39 40 41 43 43 44 44 45
33 34 35 36 36 37 37 35 35 35 35 34 35 35 35 34 33 32 31 30 30 30 30 30 31 32 33 33 33 33 34 36 37 39 39 40 42 43 43 44 45 45 45
36 37 37 38 37 38 37 37 37 37 38 37 36 35 34 35 34 32 31 31 30 30 30 31 32 32 33 33 33 34 35 36 38 39 40 42 43 43 44 44 45 45 45
39 40 39 39 40 40 39 39 39 39 39 38 37 36 36 35 33 31 31 30 30 30 31 32 32 33 33 33 34 35 36 38 39 40 42 43 44 44 45 45 46 45 44
42 42 44 44 43 42 41 40 40 39 38 37 36 34 33 33 31 30 30 30 31 31 32 32 32 33 33 34 35 36 37 38 40 42 43 44 45 45 46 46 46 45 44
43 44 44 44 43 43 43 43 41 39 36 34 32 31 31 30 28 28 29 30 30 31 31 32 32 33 33 34 36 37 38 40 41 43 44 45 46 47 47 47 45 45 44
45 45 45 45 43 43 42 40 38 35 32 30 29 29 29 27 27 28 29 28 29 30 30 31 32 33 34 35 36 38 39 41 43 44 45 46 47 47 47 46 45 44 42
45 45 44 42 40 39 36 32 30 29 28 27 27 27 25 26 26 27 27 28 29 29 30 31 33 34 34 36 37 39 40 42 44 46 47 47 48 48 47 46 44 42 39
43 40 37 35 32 29 28 27 26 25 25 24 25 25 25 25 25 25 27 28 28 29 31 32 34 34 35 36 38 40 42 44 46 47 48 49 48 47 46 45 42 40 37
38 34 31 28 26 24 24 24 23 23 22 23 24 24 23 24 24 25 27 27 28 29 31 32 33 34 36 37 39 41 43 45 47 48 49 49 48 47 45 43 40 38 35
31 28 25 23 22 21 20 21 22 22 22 23 21 22 21 22 24 25 26 27 28 29 31 32 33 35 37 39 41 42 45 47 48 49 49 49 47 45 43 40 38 35 33
24 22 21 20 20 19 20 20 20 20 19 19 19 20 21 23 24 25 26 27 28 30 32 33 34 36 38 40 42 44 46 47 49 49 49 48 45 43 41 38 36 33 30
20 19 18 17 18 18 18 18 17 17 17 17 18 20 21 22 23 24 25 27 28 30 32 34 35 37 39 42 44 45 46 49 49 50 48 46 44 41 39 37 34 31 28
17 16 15 15 15 16 15 15 15 15 16 17 18 19 21 22 23 24 26 27 29 31 33 35 36 38 41 43 44 47 48 48 49 48 46 44 42 40 37 34 32 28 25
Wind_Direction
251 256 258 265 272 278 285 293 300 303 307 311 313 314 314 313 314 314 314 313 313 314 313 311 308 306 307 308 308 307 307 305 303 303 302 302 300 299 297 294 290 287 286
252 255 260 265 270 276 282 288 294 301 304 309 311 312 312 311 312 312 312 312 312 312 313 310 307 307 307 307 306 306 306 305 304 304 303 303 301 300 298 295 293 289 287
255 259 262 265 270 275 280 286 290 297 301 306 309 310 310 310 310 310 310 310 310 311 311 308 307 307 307 306 305 305 306 306 305 305 304 303 302 301 298 296 294 291 290
258 262 265 267 271 274 276 284 285 293 299 304 306 308 308 308 309 309 309 309 309 310 310 308 307 307 307 306 306 306 306 306 307 306 305 304 303 302 300 298 296 294 293
262 265 268 271 273 274 275 278 284 292 295 300 304 306 306 306 307 308 308 308 308 309 310 308 307 308 308 307 306 307 307 307 307 306 305 305 304 304 302 301 299 297 296
265 269 271 273 274 274 275 277 282 288 293 298 301 303 304 305 305 306 307 307 308 309 309 308 307 306 307 307 308 308 308 308 308 307 306 305 305 304 303 302 300 299 298
268 271 273 274 274 274 274 275 280 285 290 294 297 299 301 303 303 304 305 306 307 308 308 307 306 306 306 307 308 309 309 309 309 308 307 306 306 305 305 304 303 301 298
269 272 274 275 275 275 274 276 280 284 287 291 294 297 298 300 301 302 304 305 305 307 307 305 305 305 305 306 308 309 309 309 310 309 308 309 308 307 306 304 304 302 301
270 273 274 275 276 276 276 277 279 282 285 288 291 294 295 298 298 299 302 303 303 305 305 304 305 305 305 306 308 308 309 310 310 309 309 309 309 309 308 306 305 305 303
272 274 275 275 276 277 277 277 280 281 284 286 288 291 294 296 296 297 299 302 301 303 304 304 305 305 305 307 308 308 309 310 310 310 309 309 310 310 309 308 307 305 304
275 276 276 277 278 279 279 279 280 280 282 283 285 289 292 294 294 294 296 299 300 301 302 303 304 305 306 307 307 308 309 310 310 310 310 309 309 309 308 308 307 306 304
278 278 279 280 281 281 280 280 280 280 281 279 281 289 292 291 292 291 293 295 296 298 301 302 303 305 306 306 308 308 309 310 311 311 311 311 310 310 309 308 307 307 304
282 281 281 282 281 281 280 279 277 282 279 278 280 286 290 290 291 288 290 293 294 296 299 300 302 304 305 307 307 308 309 310 311 311 311 311 311 311 310 309 308 307 306
283 283 282 283 281 281 280 279 277 280 279 280 282 284 287 288 287 288 288 291 292 294 297 299 301 303 304 306 307 308 309 310 311 312 312 312 312 312 311 311 310 309 307
285 285 284 284 282 283 282 279 279 282 282 281 282 282 285 287 284 283 285 287 290 293 296 298 301 303 304 306 307 308 310 311 312 312 312 312 312 312 312 311 310 310 308
287 287 285 285 282 284 284 283 283 283 281 281 281 283 284 285 281 279 282 286 287 291 295 297 299 301 303 305 306 309 311 311 312 313 313 313 313 312 312 312 311 310 309
288 288 286 286 283 282 284 283 283 285 282 280 280 280 282 283 279 276 280 286 288 290 294 296 298 301 302 304 306 309 311 312 313 314 314 313 313 313 313 312 312 311 310
292 289 287 286 283 282 283 281 281 280 279 278 278 279 280 279 276 276 281 287 289 291 294 296 298 301 302 304 307 309 311 313 314 314 314 314 314 313 313 313 312 311 310
294 291 288 287 284 282 281 280 278 276 275 274 275 278 280 275 276 279 283 285 289 292 293 296 299 301 302 305 307 309 311 313 314 315 315 315 315 314 314 313 312 312 310
294 291 288 285 284 283 280 276 274 273 272 271 273 276 276 277 278 281 283 287 290 292 295 297 300 302 303 305 307 310 311 313 315 315 316 316 316 315 314 313 313 311 310
296 293 288 286 283 279 276 273 271 271 270 269 273 275 276 278 279 282 285 288 291 293 296 299 301 303 304 306 308 310 312 314 315 316 316 316 315 315 314 314 312 311 309
296 292 288 284 280 277 274 273 273 272 271 271 275 276 274 278 281 285 288 290 293 295 298 301 302 304 305 308 309 311 312 314 315 316 316 316 316 315 314 313 312 310 308
296 291 286 282 278 277 277 274 274 273 272 275 273 275 276 279 285 288 290 293 296 298 300 302 304 306 307 308 310 312 313 315 316 317 317 317 316 315 314 313 312 310 307
298 292 286 282 278 276 276 275 275 273 273 272 274 276 280 285 288 290 293 295 298 300 302 304 306 307 309 310 311 313 314 315 316 317 317 317 316 315 315 313 311 309 306
300 296 289 283 279 277 276 276 274 272 272 273 277 282 286 289 292 294 296 299 302 304 305 306 308 309 310 312 313 314 315 316 316 317 317 317 316 315 314 312 310 308 304
304 300 294 288 284 280 277 274 272 272 274 279 284 287 290 293 295 297 300 302 305 306 307 309 310 311 313 314 315 316 316 317 318 318 317 316 316 315 314 312 309 306 302